Weather History for Plattsburgh, NY

Change the Weather History Date:

Monday, July 16, 2012

  Actual Average Record
Temperature  
Mean Temperature 76 °F 70 °F  
Max Temperature 87 °F 80 °F 95 °F (1968)
Min Temperature 64 °F 59 °F 42 °F (1960)
Cooling Degree Days 11 5  
Month to date cooling degree days 97 74  
Year to date cooling degree days 223 144  
Since 1 June cooling degree days 187 136  
Growing Degree Days 24 (Base 50)    
Moisture  
Dew Point 66 °F    
Average Humidity 74    
Maximum Humidity 100    
Minimum Humidity 48    
Precipitation  
Precipitation 0.01 in - 0.95 in (1984)
Month to date precipitation 1.84  
Year to date precipitation 12.43  
Sea Level Pressure  
Sea Level Pressure 29.82 in    
Wind  
Wind Speed 3 mph (NE)    
Max Wind Speed 13 mph    
Max Gust Speed 17 mph    
Visibility 5 miles    
Events Fog    
T = Trace of Precipitation, MM = Missing Value Source: NWS Daily Summary

Daily Weather History Graph

Daily Weather History Graph

Search for Another Location

Airport:

Trip Planner

Search our weather history database for the weather conditions in past years. The results will help you decide how hot, cold, wet, or windy it might be!

Date:

Astronomy

Jul. 16, 2012 Rise Set
Actual Time 5:24 AM EDT 8:35 PM EDT
Civil Twilight 4:48 AM EDT 9:10 PM EDT
Nautical Twilight 4:02 AM EDT 9:56 PM EDT
Astronomical Twilight 3:06 AM EDT 10:51 PM EDT
Moon 3:05 AM EDT (7/16) 6:38 PM EDT (7/16)
Length of Visible Light 16h 22m
Length of Day
15h 11m
Waning Crescent, 6% of the Moon is Illuminated
Jul 16
Waning Crescent
Jul 19
New
Jul 26
First Quarter
Aug 1
Full
Aug 9
Last Quarter

Hourly Weather History & Observations

Time (EDT) Temp. Heat Index Dew Point Humidity Pressure Visibility Wind Dir Wind Speed Gust Speed Precip Events Conditions
12:14 AM 66.2 °F - 66.2 °F 100% 29.86 in 7.0 mi Calm Calm - N/A   Partly Cloudy
12:53 AM 66.0 °F - 64.9 °F 96% 29.86 in 2.5 mi Calm Calm - N/A   Clear
1:01 AM 66.2 °F - 64.4 °F 94% 29.85 in 6.0 mi Calm Calm - N/A   Clear
1:15 AM 66.2 °F - 64.4 °F 94% 29.85 in 2.0 mi Calm Calm - N/A   Clear
1:22 AM 64.4 °F - 64.4 °F 100% 29.85 in 1.2 mi Calm Calm - N/A   Clear
1:25 AM 64.4 °F - 64.4 °F 100% 29.85 in 0.8 mi Calm Calm - N/A   Mist
1:38 AM 66.2 °F - 64.4 °F 94% 29.85 in 2.0 mi Calm Calm - N/A   Partly Cloudy
1:44 AM 64.4 °F - 64.4 °F 100% 29.85 in 1.0 mi Calm Calm - N/A   Mist
1:48 AM 64.4 °F - 64.4 °F 100% 29.85 in 0.5 mi Calm Calm - N/A Fog Fog
1:53 AM 64.9 °F - 64.0 °F 97% 29.85 in 0.5 mi Calm Calm - N/A Fog Fog
2:03 AM 64.4 °F - 64.4 °F 100% 29.85 in 0.8 mi Calm Calm - N/A   Mostly Cloudy
2:07 AM 64.4 °F - 64.4 °F 100% 29.84 in 2.0 mi Calm Calm - N/A   Mostly Cloudy
2:16 AM 64.4 °F - 64.4 °F 100% 29.84 in 4.0 mi Calm Calm - N/A   Scattered Clouds
2:53 AM 66.9 °F - 66.0 °F 97% 29.84 in 9.0 mi Calm Calm - N/A   Mostly Cloudy
3:53 AM 66.9 °F - 64.9 °F 93% 29.82 in 5.0 mi Calm Calm - N/A   Scattered Clouds
4:53 AM 66.9 °F - 66.0 °F 97% 29.82 in 3.0 mi Calm Calm - N/A   Mostly Cloudy
5:15 AM 66.2 °F - 64.4 °F 94% 29.82 in 2.5 mi Calm Calm - N/A   Partly Cloudy
5:25 AM 66.2 °F - 64.4 °F 94% 29.82 in 1.5 mi Calm Calm - N/A   Partly Cloudy
5:35 AM 66.2 °F - 64.4 °F 94% 29.82 in 1.0 mi Calm Calm - N/A   Mist
5:45 AM 64.4 °F - 64.4 °F 100% 29.82 in 0.5 mi Calm Calm - N/A Fog Fog
5:53 AM 64.9 °F - 64.0 °F 97% 29.82 in 0.2 mi Calm Calm - N/A Fog Fog
6:09 AM 64.4 °F - 64.4 °F 100% 29.82 in 1.0 mi Calm Calm - N/A   Mist
6:18 AM 66.2 °F - 64.4 °F 94% 29.82 in 1.8 mi Calm Calm - 0.01 in   Clear
6:21 AM 66.2 °F - 64.4 °F 94% 29.82 in 3.0 mi Calm Calm - 0.01 in   Clear
6:33 AM 66.2 °F - 66.2 °F 100% 29.82 in 2.5 mi Calm Calm - 0.01 in   Clear
6:41 AM 68.0 °F - 66.2 °F 94% 29.83 in 3.0 mi Calm Calm - 0.01 in   Clear
6:49 AM 66.2 °F - 66.2 °F 100% 29.83 in 2.0 mi Calm Calm - 0.01 in   Clear
6:53 AM 68.0 °F - 66.9 °F 96% 29.83 in 2.0 mi Calm Calm - 0.01 in   Clear
7:07 AM 69.8 °F - 68.0 °F 94% 29.83 in 4.0 mi Calm Calm - N/A   Clear
7:53 AM 72.0 °F - 68.0 °F 87% 29.84 in 9.0 mi Calm Calm - N/A   Mostly Cloudy
8:53 AM 77.0 °F - 70.0 °F 79% 29.83 in 10.0 mi Calm Calm - N/A   Partly Cloudy
9:53 AM 80.1 °F 82.9 °F 69.1 °F 69% 29.82 in 10.0 mi SSW 5.8 mph - N/A   Clear
10:53 AM 82.0 °F 84.9 °F 68.0 °F 62% 29.81 in 10.0 mi Variable 3.5 mph - N/A   Scattered Clouds
11:53 AM 80.1 °F 83.2 °F 70.0 °F 71% 29.81 in 10.0 mi ESE 6.9 mph - N/A   Clear
12:53 PM 81.0 °F 84.1 °F 69.1 °F 67% 29.81 in 10.0 mi SE 5.8 mph - N/A   Scattered Clouds
1:53 PM 82.0 °F 85.5 °F 69.1 °F 65% 29.80 in 10.0 mi Variable 3.5 mph - N/A   Mostly Cloudy
2:53 PM 82.0 °F 85.5 °F 69.1 °F 65% 29.78 in 10.0 mi East 3.5 mph - N/A   Scattered Clouds
3:53 PM 84.9 °F 87.6 °F 66.9 °F 55% 29.77 in 10.0 mi Variable 4.6 mph - N/A   Clear
4:53 PM 84.9 °F 86.6 °F 64.9 °F 51% 29.76 in 10.0 mi North 11.5 mph - N/A   Scattered Clouds
5:53 PM 84.0 °F 85.8 °F 64.9 °F 53% 29.76 in 10.0 mi NNW 5.8 mph - N/A   Mostly Cloudy
6:53 PM 84.0 °F 84.9 °F 63.0 °F 49% 29.77 in 10.0 mi NW 6.9 mph - N/A   Clear
7:53 PM 79.0 °F - 66.9 °F 66% 29.76 in 10.0 mi Calm Calm - N/A   Clear
8:53 PM 72.0 °F - 66.9 °F 84% 29.75 in 10.0 mi Calm Calm - N/A   Clear
9:53 PM 72.0 °F - 69.1 °F 91% 29.76 in 10.0 mi Calm Calm - N/A   Clear
10:53 PM 72.0 °F - 68.0 °F 87% 29.77 in 10.0 mi Calm Calm - N/A   Clear
11:53 PM 71.1 °F - 66.9 °F 87% 29.77 in 10.0 mi Calm Calm - N/A   Scattered Clouds